GIA210 WSSS-WIII

Flight info

Callsign GIA210
Flight time 1h 11m
Altitude 33000
Route ANITO8B ANITO B470 BUNIK BUNIK2F
Aircraft B77W/H-SDE1E2E3FGHIJ2J3J4J5M1RWXY/LB1D1

Departure

Time 2026-05-07 12:04
Airport Singapore Changi Airport (WSSS)

Arrival

Time 2026-05-07 13:15
Airport Soekarno-Hatta International Airport (WIII)
Time Latitude Longitude Altitude Speed Heading
2026-05-07 11:44 1.36391 103.99476 28 ft 0 kts 323°
2026-05-07 11:55 1.36387 103.99479 29 ft 3 kts 332°
2026-05-07 11:55 1.36368 103.99486 28 ft 3 kts 331°
2026-05-07 11:55 1.36353 103.99498 26 ft 0 kts 294°
2026-05-07 11:55 1.36353 103.99499 26 ft 2 kts 295°
2026-05-07 11:56 1.36341 103.99514 27 ft 3 kts 333°
2026-05-07 11:56 1.36322 103.99520 26 ft 0 kts 13°
2026-05-07 11:59 1.36323 103.99520 26 ft 1 kts 13°
2026-05-07 11:59 1.36340 103.99550 28 ft 11 kts 91°
2026-05-07 11:59 1.36291 103.99671 29 ft 27 kts 113°
2026-05-07 11:59 1.36253 103.99755 29 ft 0 kts 115°
2026-05-07 12:00 1.36250 103.99761 27 ft 6 kts 115°
2026-05-07 12:00 1.36209 103.99837 29 ft 15 kts 131°
2026-05-07 12:00 1.36157 103.99853 29 ft 0 kts 191°
2026-05-07 12:01 1.36133 103.99853 29 ft 8 kts 185°
2026-05-07 12:01 1.36129 103.99852 29 ft 0 kts 191°
2026-05-07 12:03 1.36053 103.99826 29 ft 52 kts 200°
2026-05-07 12:03 1.35307 103.99509 29 ft 179 kts 204°
2026-05-07 12:04 1.33988 103.98922 919 ft 208 kts 202°
2026-05-07 12:04 1.32604 103.98342 1872 ft 220 kts 201°
2026-05-07 12:04 1.31121 103.97729 2589 ft 245 kts 202°
2026-05-07 12:04 1.29457 103.97037 2815 ft 266 kts 202°
2026-05-07 12:05 1.27763 103.96327 2807 ft 263 kts 202°
2026-05-07 12:05 1.26077 103.95618 2936 ft 263 kts 202°
2026-05-07 12:05 1.24378 103.94906 3461 ft 264 kts 202°
2026-05-07 12:05 1.22762 103.94014 4487 ft 265 kts 220°
2026-05-07 12:06 1.21197 103.93228 5735 ft 260 kts 197°
2026-05-07 12:06 1.19490 103.92409 5821 ft 276 kts 208°
2026-05-07 12:06 1.17690 103.91723 5811 ft 281 kts 187°
2026-05-07 12:06 1.15767 103.91877 5959 ft 277 kts 159°
2026-05-07 12:07 1.14168 103.92883 6225 ft 274 kts 131°
2026-05-07 12:07 1.13219 103.94514 7076 ft 275 kts 112°
2026-05-07 12:07 1.12508 103.96314 8071 ft 281 kts 110°
2026-05-07 12:07 1.11801 103.98156 9159 ft 286 kts 110°
2026-05-07 12:08 1.11088 104.00022 10200 ft 290 kts 110°
2026-05-07 12:08 1.10345 104.01971 10782 ft 314 kts 110°
2026-05-07 12:08 1.09529 104.04117 11026 ft 347 kts 110°
2026-05-07 12:08 1.08649 104.06432 11673 ft 361 kts 110°
2026-05-07 12:09 1.07530 104.08693 12477 ft 371 kts 122°
2026-05-07 12:09 1.05863 104.10696 13475 ft 377 kts 135°
2026-05-07 12:09 1.03881 104.12433 14328 ft 381 kts 137°
2026-05-07 12:09 1.01883 104.14202 15157 ft 387 kts 136°
2026-05-07 12:10 0.99899 104.15991 16042 ft 391 kts 136°
2026-05-07 12:10 0.97872 104.17831 16921 ft 395 kts 136°
2026-05-07 12:10 0.95830 104.19695 17757 ft 401 kts 135°
2026-05-07 12:10 0.93762 104.21586 18500 ft 406 kts 135°
2026-05-07 12:11 0.91659 104.23510 19193 ft 412 kts 135°
2026-05-07 12:11 0.89505 104.25481 19921 ft 417 kts 136°
2026-05-07 12:11 0.87356 104.27447 20617 ft 421 kts 136°
2026-05-07 12:11 0.85184 104.29433 21335 ft 426 kts 136°
2026-05-07 12:12 0.82986 104.31443 22019 ft 431 kts 136°
2026-05-07 12:12 0.80791 104.33451 22669 ft 436 kts 136°
2026-05-07 12:12 0.78519 104.35529 23321 ft 441 kts 136°
2026-05-07 12:12 0.76272 104.37584 23857 ft 445 kts 136°
2026-05-07 12:13 0.73975 104.39685 24418 ft 449 kts 136°
2026-05-07 12:13 0.72428 104.41100 24789 ft 451 kts 136°
2026-05-07 12:13 0.70131 104.43200 25311 ft 455 kts 136°
2026-05-07 12:13 0.67011 104.46053 26046 ft 459 kts 136°
2026-05-07 12:14 0.65379 104.47546 26423 ft 462 kts 136°
2026-05-07 12:14 0.62967 104.49752 26965 ft 465 kts 136°
2026-05-07 12:14 0.60570 104.51944 27479 ft 469 kts 136°
2026-05-07 12:14 0.58155 104.54153 27985 ft 473 kts 136°
2026-05-07 12:15 0.55721 104.56380 28517 ft 476 kts 136°
2026-05-07 12:15 0.53279 104.58612 29150 ft 475 kts 136°
2026-05-07 12:15 0.50842 104.60835 29919 ft 473 kts 137°
2026-05-07 12:15 0.48248 104.62835 30593 ft 471 kts 146°
2026-05-07 12:16 0.45410 104.64459 31306 ft 469 kts 152°
2026-05-07 12:16 0.42431 104.65759 32003 ft 467 kts 160°
2026-05-07 12:16 0.39327 104.66715 32652 ft 466 kts 162°
2026-05-07 12:16 0.36189 104.67607 32837 ft 471 kts 163°
2026-05-07 12:17 0.33027 104.68499 32818 ft 470 kts 163°
2026-05-07 12:17 0.26827 104.70290 32805 ft 464 kts 162°
2026-05-07 12:18 0.20593 104.72138 32817 ft 464 kts 162°
2026-05-07 12:18 0.14394 104.73977 32817 ft 465 kts 162°
2026-05-07 12:19 0.08199 104.75815 32829 ft 475 kts 162°
2026-05-07 12:19 0.01730 104.77738 32830 ft 493 kts 162°
2026-05-07 12:20 -0.04884 104.79702 32835 ft 506 kts 162°
2026-05-07 12:20 -0.11622 104.81968 32827 ft 515 kts 158°
2026-05-07 12:21 -0.18347 104.84571 32829 ft 521 kts 157°
2026-05-07 12:21 -0.25107 104.87209 32821 ft 521 kts 158°
2026-05-07 12:22 -0.31876 104.89801 32824 ft 521 kts 158°
2026-05-07 12:22 -0.38648 104.92364 32829 ft 520 kts 158°
2026-05-07 12:23 -0.45403 104.94917 32822 ft 519 kts 158°
2026-05-07 12:23 -0.52150 104.97469 32824 ft 518 kts 158°
2026-05-07 12:24 -0.58857 105.00010 32823 ft 517 kts 158°
2026-05-07 12:24 -0.65384 105.02483 32825 ft 517 kts 158°
2026-05-07 12:25 -0.72105 105.05029 32825 ft 517 kts 158°
2026-05-07 12:25 -0.78834 105.07578 32829 ft 517 kts 158°
2026-05-07 12:26 -0.85583 105.10135 32829 ft 518 kts 158°
2026-05-07 12:26 -0.92331 105.12691 32830 ft 518 kts 158°
2026-05-07 12:27 -0.99038 105.15233 32827 ft 519 kts 158°
2026-05-07 12:27 -1.05810 105.17798 32833 ft 519 kts 158°
2026-05-07 12:28 -1.12514 105.20338 32835 ft 519 kts 158°
2026-05-07 12:28 -1.19282 105.22902 32833 ft 520 kts 158°
2026-05-07 12:29 -1.26069 105.25475 32833 ft 521 kts 158°
2026-05-07 12:29 -1.32861 105.28049 32834 ft 522 kts 158°
2026-05-07 12:30 -1.39652 105.30623 32835 ft 522 kts 158°
2026-05-07 12:30 -1.46433 105.33192 32836 ft 521 kts 158°
2026-05-07 12:31 -1.53225 105.35767 32840 ft 522 kts 158°
2026-05-07 12:31 -1.60013 105.38340 32835 ft 522 kts 158°
2026-05-07 12:32 -1.66813 105.40918 32838 ft 522 kts 158°
2026-05-07 12:32 -1.73609 105.43494 32837 ft 523 kts 158°
2026-05-07 12:33 -1.83803 105.47359 32841 ft 522 kts 158°
2026-05-07 12:33 -1.90606 105.49939 32841 ft 523 kts 158°
2026-05-07 12:34 -1.97410 105.52519 32841 ft 523 kts 158°
2026-05-07 12:34 -2.04152 105.55076 32840 ft 523 kts 158°
2026-05-07 12:35 -2.10988 105.57669 32844 ft 523 kts 158°
2026-05-07 12:35 -2.17746 105.60232 32844 ft 523 kts 158°
2026-05-07 12:36 -2.24544 105.62811 32842 ft 522 kts 158°
2026-05-07 12:36 -2.31333 105.65386 32836 ft 522 kts 158°
2026-05-07 12:37 -2.38132 105.67966 32841 ft 522 kts 158°
2026-05-07 12:37 -2.44933 105.70548 32841 ft 522 kts 158°
2026-05-07 12:38 -2.51729 105.73126 32842 ft 523 kts 158°
2026-05-07 12:38 -2.58530 105.75708 32842 ft 523 kts 158°
2026-05-07 12:39 -2.65336 105.78291 32844 ft 523 kts 158°
2026-05-07 12:39 -2.72147 105.80877 32843 ft 523 kts 158°
2026-05-07 12:40 -2.78948 105.83459 32844 ft 523 kts 158°
2026-05-07 12:40 -2.85759 105.86046 32844 ft 523 kts 158°
2026-05-07 12:41 -2.92574 105.88634 32843 ft 523 kts 158°
2026-05-07 12:41 -2.99376 105.91218 32843 ft 523 kts 158°
2026-05-07 12:42 -3.06156 105.93793 32847 ft 524 kts 158°
2026-05-07 12:42 -3.12971 105.96382 32847 ft 524 kts 158°
2026-05-07 12:43 -3.19800 105.98977 32847 ft 524 kts 158°
2026-05-07 12:43 -3.26354 106.01467 32845 ft 525 kts 158°
2026-05-07 12:44 -3.33225 106.04080 32850 ft 525 kts 158°
2026-05-07 12:44 -3.40063 106.06680 32850 ft 526 kts 158°
2026-05-07 12:45 -3.46857 106.09263 32849 ft 526 kts 158°
2026-05-07 12:45 -3.53695 106.11863 32849 ft 526 kts 158°
2026-05-07 12:46 -3.60534 106.14464 32849 ft 525 kts 158°
2026-05-07 12:46 -3.67375 106.17066 32850 ft 525 kts 157°
2026-05-07 12:47 -3.74209 106.19666 32847 ft 525 kts 158°
2026-05-07 12:47 -3.81045 106.22268 32849 ft 525 kts 158°
2026-05-07 12:48 -3.87880 106.24869 32849 ft 525 kts 158°
2026-05-07 12:48 -3.94718 106.27472 32849 ft 525 kts 158°
2026-05-07 12:49 -4.01479 106.30046 32850 ft 525 kts 158°
2026-05-07 12:49 -4.07164 106.32211 32848 ft 526 kts 158°
2026-05-07 12:50 -4.14002 106.34815 32851 ft 526 kts 158°
2026-05-07 12:50 -4.20843 106.37421 32852 ft 526 kts 158°
2026-05-07 12:51 -4.27673 106.40023 32852 ft 525 kts 158°
2026-05-07 12:51 -4.34511 106.42629 32851 ft 524 kts 158°
2026-05-07 12:52 -4.41336 106.45230 32851 ft 524 kts 158°
2026-05-07 12:52 -4.48173 106.47837 32854 ft 525 kts 159°
2026-05-07 12:53 -4.54965 106.50427 32852 ft 526 kts 158°
2026-05-07 12:53 -4.61815 106.53039 32854 ft 527 kts 158°
2026-05-07 12:54 -4.68676 106.55657 32854 ft 527 kts 158°
2026-05-07 12:54 -4.75526 106.58270 32853 ft 527 kts 158°
2026-05-07 12:55 -4.82388 106.60890 32855 ft 528 kts 158°
2026-05-07 12:55 -4.89368 106.63234 32617 ft 532 kts 165°
2026-05-07 12:56 -4.93002 106.63919 32092 ft 531 kts 172°
2026-05-07 12:56 -4.96635 106.64343 31635 ft 522 kts 173°
2026-05-07 12:56 -5.00202 106.64723 31159 ft 514 kts 173°
2026-05-07 12:56 -5.03738 106.65098 30707 ft 509 kts 172°
2026-05-07 12:57 -5.07265 106.65486 30254 ft 512 kts 172°
2026-05-07 12:57 -5.10808 106.65893 29792 ft 518 kts 172°
2026-05-07 12:57 -5.14412 106.66319 29297 ft 523 kts 171°
2026-05-07 12:57 -5.18027 106.66753 28768 ft 522 kts 172°
2026-05-07 12:58 -5.21635 106.67188 28280 ft 519 kts 172°
2026-05-07 12:58 -5.25205 106.67618 27779 ft 516 kts 172°
2026-05-07 12:58 -5.28762 106.68046 27287 ft 513 kts 172°
2026-05-07 12:58 -5.32295 106.68471 26823 ft 510 kts 172°
2026-05-07 12:59 -5.35813 106.68657 26303 ft 508 kts 181°
2026-05-07 12:59 -5.39309 106.68152 25851 ft 508 kts 192°
2026-05-07 12:59 -5.42675 106.67090 25370 ft 507 kts 200°
2026-05-07 12:59 -5.45843 106.65562 24842 ft 504 kts 209°
2026-05-07 13:00 -5.48852 106.63761 24367 ft 505 kts 210°
2026-05-07 13:00 -5.51861 106.61949 23871 ft 503 kts 210°
2026-05-07 13:00 -5.54864 106.60156 23374 ft 500 kts 210°
2026-05-07 13:00 -5.57847 106.58394 22782 ft 496 kts 209°
2026-05-07 13:01 -5.60815 106.56656 22209 ft 492 kts 209°
2026-05-07 13:01 -5.63769 106.54936 21642 ft 486 kts 209°
2026-05-07 13:01 -5.66670 106.53251 21086 ft 479 kts 208°
2026-05-07 13:01 -5.69496 106.51610 20540 ft 471 kts 209°
2026-05-07 13:02 -5.72348 106.49952 19994 ft 465 kts 208°
2026-05-07 13:02 -5.75102 106.48351 19464 ft 459 kts 208°
2026-05-07 13:02 -5.77855 106.46749 18908 ft 455 kts 208°
2026-05-07 13:02 -5.80584 106.45161 18379 ft 450 kts 208°
2026-05-07 13:03 -5.83175 106.43650 17884 ft 413 kts 208°
2026-05-07 13:03 -5.85580 106.42247 17097 ft 388 kts 208°
2026-05-07 13:03 -5.87848 106.40926 16408 ft 366 kts 208°
2026-05-07 13:03 -5.89998 106.39674 15729 ft 349 kts 208°
2026-05-07 13:04 -5.92050 106.38479 15057 ft 335 kts 208°
2026-05-07 13:04 -5.94032 106.37326 14413 ft 323 kts 208°
2026-05-07 13:04 -5.95943 106.36214 13764 ft 313 kts 208°
2026-05-07 13:04 -5.97803 106.35130 13070 ft 305 kts 208°
2026-05-07 13:05 -5.99618 106.34073 12380 ft 298 kts 208°
2026-05-07 13:05 -6.01383 106.33046 11627 ft 295 kts 208°
2026-05-07 13:05 -6.03155 106.32026 10860 ft 291 kts 204°
2026-05-07 13:05 -6.05081 106.31517 10080 ft 285 kts 178°
2026-05-07 13:06 -6.07018 106.31765 9365 ft 278 kts 167°
2026-05-07 13:06 -6.08905 106.32117 8605 ft 275 kts 168°
2026-05-07 13:06 -6.10766 106.32457 7926 ft 268 kts 168°
2026-05-07 13:06 -6.12586 106.32785 7158 ft 265 kts 168°
2026-05-07 13:07 -6.14398 106.33108 6429 ft 263 kts 168°
2026-05-07 13:07 -6.16189 106.33425 5664 ft 260 kts 168°
2026-05-07 13:07 -6.17961 106.33738 4894 ft 258 kts 168°
2026-05-07 13:07 -6.19687 106.34125 4386 ft 244 kts 155°
2026-05-07 13:08 -6.20961 106.35044 4144 ft 211 kts 130°
2026-05-07 13:08 -6.21782 106.36175 4045 ft 195 kts 121°
2026-05-07 13:08 -6.22499 106.37329 4041 ft 197 kts 120°
2026-05-07 13:08 -6.23226 106.38507 4017 ft 199 kts 121°
2026-05-07 13:09 -6.23747 106.39775 3996 ft 197 kts 95°
2026-05-07 13:09 -6.23545 106.41138 3914 ft 200 kts 72°
2026-05-07 13:09 -6.23039 106.42442 3782 ft 200 kts 68°
2026-05-07 13:09 -6.22506 106.43735 3644 ft 199 kts 68°
2026-05-07 13:10 -6.21980 106.45025 3513 ft 201 kts 68°
2026-05-07 13:10 -6.21450 106.46335 3390 ft 204 kts 68°
2026-05-07 13:10 -6.20928 106.47630 3259 ft 194 kts 69°
2026-05-07 13:10 -6.20437 106.48854 3122 ft 185 kts 68°
2026-05-07 13:11 -6.19971 106.50015 2985 ft 176 kts 70°
2026-05-07 13:11 -6.19522 106.51141 2751 ft 170 kts 70°
2026-05-07 13:11 -6.19081 106.52247 2538 ft 172 kts 70°
2026-05-07 13:11 -6.18633 106.53373 2327 ft 173 kts 70°
2026-05-07 13:12 -6.18186 106.54495 2101 ft 172 kts 69°
2026-05-07 13:12 -6.17740 106.55615 1884 ft 173 kts 69°
2026-05-07 13:12 -6.17292 106.56739 1644 ft 174 kts 69°
2026-05-07 13:12 -6.16845 106.57863 1408 ft 173 kts 69°
2026-05-07 13:13 -6.16406 106.58964 1199 ft 163 kts 68°
2026-05-07 13:13 -6.15998 106.59985 926 ft 151 kts 70°
2026-05-07 13:13 -6.15623 106.60923 705 ft 142 kts 69°
2026-05-07 13:13 -6.15268 106.61813 459 ft 132 kts 70°
2026-05-07 13:14 -6.14948 106.62610 206 ft 116 kts 68°
2026-05-07 13:14 -6.14630 106.63396 410 ft 126 kts 70°
2026-05-07 13:14 -6.14295 106.64203 318 ft 126 kts 67°
2026-05-07 13:14 -6.13980 106.65005 55 ft 121 kts 73°
2026-05-07 13:15 -6.13797 106.65529 44 ft 36 kts 60°
2026-05-07 13:15 -6.13713 106.65728 42 ft 29 kts 89°
2026-05-07 13:15 -6.13650 106.65925 42 ft 29 kts 58°
2026-05-07 13:15 -6.13555 106.66103 42 ft 29 kts 61°
2026-05-07 13:16 -6.13429 106.66263 44 ft 29 kts 41°
2026-05-07 13:16 -6.13287 106.66323 45 ft 9 kts 46°
2026-05-07 13:16 -6.13261 106.66378 46 ft 9 kts 70°
2026-05-07 13:16 -6.13239 106.66438 46 ft 9 kts 73°
2026-05-07 13:17 -6.13215 106.66498 45 ft 10 kts 70°
2026-05-07 13:17 -6.13186 106.66560 44 ft 10 kts 65°
2026-05-07 13:17 -6.13168 106.66627 44 ft 10 kts 96°
2026-05-07 13:17 -6.13149 106.66695 44 ft 10 kts 67°
2026-05-07 13:18 -6.13113 106.66758 44 ft 11 kts 64°
2026-05-07 13:18 -6.13083 106.66826 44 ft 11 kts 70°
2026-05-07 13:18 -6.13055 106.66896 42 ft 11 kts 54°
2026-05-07 13:18 -6.13026 106.66968 42 ft 11 kts 59°
2026-05-07 13:19 -6.12996 106.67041 42 ft 11 kts 62°
2026-05-07 13:19 -6.12956 106.67110 43 ft 12 kts 63°
2026-05-07 13:19 -6.12925 106.67184 42 ft 12 kts 56°
2026-05-07 13:19 -6.12911 106.67261 41 ft 12 kts 84°
2026-05-07 13:20 -6.12887 106.67340 41 ft 12 kts 61°
2026-05-07 13:20 -6.12857 106.67417 42 ft 12 kts 57°
2026-05-07 13:20 -6.12813 106.67488 43 ft 12 kts 60°
2026-05-07 13:20 -6.12768 106.67560 42 ft 12 kts 54°
2026-05-07 13:21 -6.12724 106.67634 41 ft 12 kts 57°
2026-05-07 13:21 -6.12676 106.67707 40 ft 13 kts 57°
2026-05-07 13:21 -6.12618 106.67772 39 ft 13 kts 40°
2026-05-07 13:21 -6.12544 106.67823 38 ft 13 kts 36°
2026-05-07 13:22 -6.12471 106.67860 45 ft 0 kts 44°
2026-05-07 13:23 -6.12469 106.67861 45 ft 0 kts 37°
2026-05-07 13:23 -6.12462 106.67862 47 ft 2 kts 12°
2026-05-07 13:23 -6.12400 106.67869 42 ft 23 kts 356°
2026-05-07 13:23 -6.12193 106.67807 53 ft 36 kts 334°
2026-05-07 13:24 -6.11916 106.67682 34 ft 47 kts 335°
2026-05-07 13:24 -6.11623 106.67581 35 ft 42 kts 337°
2026-05-07 13:24 -6.11365 106.67479 35 ft 38 kts 346°
2026-05-07 13:24 -6.11175 106.67416 35 ft 0 kts 329°
2026-05-07 13:25 -6.11167 106.67414 35 ft 3 kts 341°
2026-05-07 13:25 -6.11137 106.67393 35 ft 10 kts 321°
2026-05-07 13:25 -6.11092 106.67291 35 ft 24 kts 270°
2026-05-07 13:25 -6.11120 106.67080 34 ft 38 kts 259°
2026-05-07 13:26 -6.11230 106.66799 36 ft 44 kts 246°
2026-05-07 13:26 -6.11368 106.66491 36 ft 49 kts 255°
2026-05-07 13:26 -6.11429 106.66352 37 ft 14 kts 205°
2026-05-07 13:26 -6.11521 106.66337 37 ft 9 kts 202°
2026-05-07 13:27 -6.11582 106.66355 38 ft 10 kts 144°
2026-05-07 13:27 -6.11640 106.66392 38 ft 10 kts 152°
2026-05-07 13:27 -6.11708 106.66426 37 ft 12 kts 143°
2026-05-07 13:27 -6.11736 106.66443 37 ft 4 kts 155°
2026-05-07 13:28 -6.11747 106.66446 37 ft 0 kts 169°